Location: Big Meadows
(38.5260°N, 78.4400°W)
Time: 17:41:56
(UTC-04:00)

H-2A R/B - Visible Passes

Search period start: 02 September 2015 00:00
Search period end: 12 September 2015 00:00
Orbit: 734 x 839 km, 98.4° (Epoch: 02 September)

Date Brightness Start Highest point End Pass type
(mag) Time Alt. Az. Time Alt. Az. Time Alt. Az.
02 Sep 4.1 22:30:33 16° NNE 22:30:33 16° NNE 22:31:55 10° NNE visible
03 Sep 4.7 00:11:12 14° NW 00:11:12 14° NW 00:11:55 10° NNW visible
03 Sep 4.4 23:40:18 18° NNW 23:40:18 18° NNW 23:41:34 10° NNW visible
04 Sep 4.2 23:09:24 19° N 23:09:24 19° N 23:10:48 10° N visible
05 Sep 4.2 22:38:29 15° NNE 22:38:29 15° NNE 22:39:38 10° NNE visible
06 Sep 4.9 00:19:08 10° NW 00:19:08 10° NW 00:19:14 10° NW visible
06 Sep 4.4 22:07:34 10° NNE 22:07:34 10° NNE 22:07:40 10° NNE visible
06 Sep 4.7 23:48:14 15° NNW 23:48:14 15° NNW 23:49:00 10° NNW visible
07 Sep 4.4 23:17:19 16° N 23:17:19 16° N 23:18:21 10° N visible
08 Sep 4.3 22:46:24 15° NNE 22:46:24 15° NNE 22:47:17 10° N visible
09 Sep 4.5 22:15:29 10° NNE 22:15:29 10° NNE 22:15:37 10° NNE visible
09 Sep 4.9 23:56:07 12° NNW 23:56:07 12° NNW 23:56:26 10° NNW visible
10 Sep 4.6 23:25:12 14° N 23:25:12 14° N 23:25:52 10° N visible
11 Sep 4.5 22:54:18 13° N 22:54:18 13° N 22:54:55 10° N visible
